Regional Weather Roundup
Issued by NWS

Home | Current Version | Previous Version | Text Only | Print | Product List | Glossary On
Versions: 1 2 3 4 5 6 7 8 9 10 11 12 13 14 15 16 17 18 19 20 21 22 23 24 25 26 27 28 29 30 31 32 33 34 35 36 37 38 39 40 41 42 43 44 45 46 47 48 49 50
000
ASUS44 KBMX 301510
RWRAL

ALABAMA REGIONAL WEATHER ROUNDUP
NATIONAL WEATHER SERVICE BIRMINGHAM AL
1000 AM CDT TUE JUN 30 2015

NOTE: "FAIR" INDICATES FEW OR NO CLOUDS BELOW 12,000 FEET
WITH NO SIGNIFICANT WEATHER AND/OR OBSTRUCTIONS TO VISIBILITY.

THE REMARK "TC" DENOTES TEMPERATURE IN DEGREES CELSIUS.

ALZ001>011-014-016>018-020-301600-
NORTH ALABAMA

CITY           SKY/WX    TMP DP  RH WIND       PRES   REMARKS
MUSCLE SHOALS  CLOUDY    77  70  79 SW9       30.02R
HUNTSVILLE     CLOUDY    81  70  69 SW12      30.01R
DECATUR        CLOUDY    80  71  74 SW10      30.00R
HALEYVILLE     FAIR      75  70  85 SW9       30.05S
GADSDEN        CLOUDY   N/A N/A N/A SW9       30.02R
$$

ALZ012-013-022-023-030>036-040>044-301600-
WEST CENTRAL ALABAMA

CITY           SKY/WX    TMP DP  RH WIND       PRES   REMARKS
TUSCALOOSA     CLOUDY    74  69  85 W8        30.08R
$$

ALZ015-024>027-033>036-040>044-301600-
CENTRAL ALABAMA

CITY           SKY/WX    TMP DP  RH WIND       PRES   REMARKS
BIRMINGHAM     CLOUDY    72  68  87 W3        30.07R
MONTGOMERY     LGT RAIN  76  70  82 NW6       30.07R
SHELBY CO ARPT CLOUDY    75  70  84 SW8       30.05S
MAXWELL AFB    DRIZZLE   75  72  88 W3        30.05S
GREENVILLE     PTSUNNY   82  70  66 NW8       30.08R
$$

ALZ019-021-028-029-037-038-045>048-301600-
EAST CENTRAL ALABAMA

CITY           SKY/WX    TMP DP  RH WIND       PRES   REMARKS
ANNISTON       CLOUDY    73  68  84 SW13      30.03F
ALEXANDER CITY LGT RAIN  74  68  80 W8        30.06F
AUBURN         CLOUDY    75  70  83 W8        30.08S
$$

ALZ051>064-301600-
SOUTHWEST ALABAMA

CITY           SKY/WX    TMP DP  RH WIND       PRES   REMARKS
MOBILE         PTSUNNY   83  73  72 W9G17     30.10S
BROOKLEY FIELD PTSUNNY   84  73  69 VRB5      30.10S HX  90
EVERGREEN      PTSUNNY   84  73  69 VRB5      30.09S HX  90
$$

ALZ049-050-065>069-301600-
SOUTHEAST ALABAMA

CITY           SKY/WX    TMP DP  RH WIND       PRES   REMARKS
DOTHAN         MOSUNNY   85  75  72 W15       30.10F HX  93
OZARK          PTSUNNY   84  75  75 W10       30.06F HX  92
TROY           PTSUNNY   82  72  71 NW9       30.07F
EUFAULA        FAIR      87  75  67 W6G18     30.03F HX  96
$$


USA.gov is the U.S. government's official web portal to all federal, state and local government web resources and services.